TimeAKST,TemperatureF,Dew PointF,Humidity,Sea Level PressureIn,VisibilityMPH,Wind Direction,Wind SpeedMPH,Gust SpeedMPH,PrecipitationIn,Events,Conditions,WindDirDegrees,DateUTC
12:16 AM,6.8,6.8,100,29.83,10.0,Calm,Calm,-,N/A,,Scattered Clouds,0,2011-11-08 09:16:00
12:36 AM,5.0,1.4,85,29.84,10.0,Calm,Calm,-,N/A,,Clear,0,2011-11-08 09:36:00
12:56 AM,-0.4,-4.0,85,29.85,10.0,Calm,Calm,-,N/A,,Clear,0,2011-11-08 09:56:00
1:16 AM,1.4,-0.4,92,29.86,10.0,Calm,Calm,-,N/A,,Partly Cloudy,0,2011-11-08 10:16:00
1:36 AM,3.2,1.4,92,29.88,10.0,Calm,Calm,-,N/A,,Scattered Clouds,0,2011-11-08 10:36:00
1:56 AM,1.4,-7.6,66,29.89,10.0,ENE,3.5,-,N/A,,Mostly Cloudy,70,2011-11-08 10:56:00
2:16 AM,1.4,1.4,100,29.90,10.0,ENE,3.5,-,N/A,,Scattered Clouds,70,2011-11-08 11:16:00
2:36 AM,3.2,-4.0,72,29.91,10.0,East,3.5,-,N/A,,Partly Cloudy,80,2011-11-08 11:36:00
2:56 AM,1.4,-0.4,92,29.92,9.0,Calm,Calm,-,N/A,,Clear,0,2011-11-08 11:56:00
3:16 AM,-2.2,-4.0,92,29.92,10.0,Calm,Calm,-,N/A,,Clear,0,2011-11-08 12:16:00
3:36 AM,-0.4,-2.2,92,29.93,10.0,NE,3.5,-,N/A,,Clear,40,2011-11-08 12:36:00
3:56 AM,-0.4,-7.6,72,29.95,10.0,East,3.5,-,N/A,,Clear,90,2011-11-08 12:56:00
4:16 AM,-0.4,-5.8,78,29.96,10.0,East,4.6,-,N/A,,Clear,90,2011-11-08 13:16:00
4:36 AM,-2.2,-7.6,78,29.97,10.0,Calm,Calm,-,N/A,,Clear,0,2011-11-08 13:36:00
4:56 AM,-2.2,-2.2,100,29.99,10.0,ENE,3.5,-,N/A,,Clear,70,2011-11-08 13:56:00
5:16 AM,-2.2,-5.8,85,29.99,10.0,ENE,4.6,-,N/A,,Clear,70,2011-11-08 14:16:00
5:36 AM,-0.4,-2.2,92,30.00,10.0,East,5.8,-,N/A,,Clear,90,2011-11-08 14:36:00
5:56 AM,-2.2,-9.4,71,30.01,10.0,ESE,3.5,-,N/A,,Clear,110,2011-11-08 14:56:00
6:16 AM,-4.0,-5.8,92,30.02,10.0,East,3.5,-,N/A,,Clear,100,2011-11-08 15:16:00
6:36 AM,-5.8,-14.8,65,30.04,10.0,ENE,5.8,-,N/A,,Clear,70,2011-11-08 15:36:00
7:16 AM,-0.4,-2.2,92,30.05,9.0,East,5.8,-,N/A,,Clear,90,2011-11-08 16:16:00
7:36 AM,-5.8,-14.8,65,30.07,10.0,East,4.6,-,N/A,,Clear,80,2011-11-08 16:36:00
7:56 AM,-5.8,-5.8,100,30.07,10.0,East,4.6,-,N/A,,Clear,80,2011-11-08 16:56:00
8:16 AM,-5.8,-5.8,100,30.08,10.0,East,4.6,-,N/A,,Clear,80,2011-11-08 17:16:00
8:36 AM,-4.0,-5.8,92,30.09,8.0,ENE,4.6,-,N/A,,Clear,60,2011-11-08 17:36:00
8:56 AM,-5.8,-9.4,84,30.10,8.0,East,3.5,-,N/A,,Clear,90,2011-11-08 17:56:00
9:16 AM,-4.0,-7.6,85,30.11,7.0,East,4.6,-,N/A,,Clear,80,2011-11-08 18:16:00
9:36 AM,-2.2,-5.8,85,30.12,7.0,East,3.5,-,N/A,,Clear,80,2011-11-08 18:36:00
9:56 AM,-2.2,-5.8,85,30.12,7.0,East,5.8,-,N/A,,Clear,80,2011-11-08 18:56:00
10:16 AM,-0.4,-5.8,78,30.13,7.0,East,4.6,-,N/A,,Clear,80,2011-11-08 19:16:00
10:36 AM,-0.4,-2.2,92,30.13,8.0,East,3.5,-,N/A,,Clear,80,2011-11-08 19:36:00
10:56 AM,-0.4,-0.4,100,30.15,8.0,Calm,Calm,-,N/A,,Clear,0,2011-11-08 19:56:00
11:16 AM,1.4,-0.4,92,30.15,7.0,East,6.9,-,N/A,,Clear,80,2011-11-08 20:16:00
11:36 AM,5.0,3.2,92,30.16,8.0,East,3.5,-,N/A,,Clear,80,2011-11-08 20:36:00
12:16 PM,8.6,6.8,92,30.16,8.0,Calm,Calm,-,N/A,,Clear,0,2011-11-08 21:16:00
12:36 PM,10.4,8.6,92,30.17,8.0,Calm,Calm,-,N/A,,Clear,0,2011-11-08 21:36:00
12:56 PM,12.2,10.4,92,30.17,8.0,Calm,Calm,-,N/A,,Clear,0,2011-11-08 21:56:00
1:16 PM,12.2,10.4,92,30.17,9.0,Calm,Calm,-,N/A,,Clear,0,2011-11-08 22:16:00
1:36 PM,15.8,12.2,86,30.17,-9999.0,Calm,Calm,-,N/A,,Unknown,0,2011-11-08 22:36:00
1:56 PM,15.8,12.2,86,30.16,10.0,East,3.5,-,N/A,,Clear,100,2011-11-08 22:56:00
2:16 PM,15.8,12.2,86,30.16,9.0,ESE,4.6,-,N/A,,Clear,120,2011-11-08 23:16:00
2:36 PM,17.6,14.0,86,30.15,9.0,ESE,3.5,-,N/A,,Clear,120,2011-11-08 23:36:00
2:56 PM,17.6,14.0,86,30.15,9.0,ESE,5.8,-,N/A,,Clear,120,2011-11-08 23:56:00
3:16 PM,17.6,12.2,79,30.14,10.0,ESE,5.8,-,N/A,,Clear,110,2011-11-09 00:16:00
3:36 PM,17.6,12.2,79,30.14,9.0,ESE,6.9,-,N/A,,Clear,110,2011-11-09 00:36:00
3:56 PM,17.6,12.2,79,30.14,9.0,SE,3.5,-,N/A,,Clear,130,2011-11-09 00:56:00
4:16 PM,15.8,10.4,79,30.13,9.0,Calm,Calm,-,N/A,,Clear,0,2011-11-09 01:16:00
4:36 PM,12.2,10.4,92,30.13,9.0,Calm,Calm,-,N/A,,Clear,0,2011-11-09 01:36:00
4:56 PM,8.6,8.6,100,30.14,9.0,Calm,Calm,-,N/A,,Clear,0,2011-11-09 01:56:00
5:16 PM,6.8,6.8,100,30.14,9.0,Calm,Calm,-,N/A,,Clear,0,2011-11-09 02:16:00
5:36 PM,8.6,5.0,85,30.13,10.0,ENE,3.5,-,N/A,,Clear,70,2011-11-09 02:36:00
5:56 PM,8.6,1.4,73,30.13,10.0,Calm,Calm,-,N/A,,Clear,0,2011-11-09 02:56:00
6:16 PM,3.2,-2.2,78,30.13,10.0,ENE,3.5,-,N/A,,Clear,70,2011-11-09 03:16:00
6:36 PM,3.2,-2.2,78,30.12,10.0,Calm,Calm,-,N/A,,Clear,0,2011-11-09 03:36:00
6:56 PM,-0.4,-7.6,72,30.10,10.0,Calm,Calm,-,N/A,,Clear,0,2011-11-09 03:56:00
7:16 PM,1.4,1.4,100,30.11,10.0,Calm,Calm,-,N/A,,Clear,0,2011-11-09 04:16:00
7:36 PM,1.4,1.4,100,30.12,10.0,East,4.6,-,N/A,,Clear,90,2011-11-09 04:36:00
7:56 PM,1.4,-0.4,92,30.11,10.0,Calm,Calm,-,N/A,,Clear,0,2011-11-09 04:56:00
8:16 PM,-2.2,-7.6,78,30.12,10.0,Calm,Calm,-,N/A,,Clear,0,2011-11-09 05:16:00
8:36 PM,-0.4,-0.4,100,30.10,10.0,Calm,Calm,-,N/A,,Clear,0,2011-11-09 05:36:00
8:56 PM,-0.4,-2.2,92,30.12,10.0,Calm,Calm,-,N/A,,Clear,0,2011-11-09 05:56:00
9:16 PM,-0.4,-5.8,78,30.10,10.0,East,3.5,-,N/A,,Clear,90,2011-11-09 06:16:00
9:36 PM,-2.2,-9.4,71,30.12,10.0,Calm,Calm,-,N/A,,Clear,0,2011-11-09 06:36:00
9:56 PM,-2.2,-2.2,100,30.09,10.0,East,3.5,-,N/A,,Clear,100,2011-11-09 06:56:00
10:16 PM,3.2,3.2,100,30.09,10.0,East,4.6,-,N/A,,Clear,80,2011-11-09 07:16:00
10:36 PM,3.2,-2.2,78,30.07,10.0,East,6.9,-,N/A,,Clear,90,2011-11-09 07:36:00
10:56 PM,3.2,1.4,92,30.07,10.0,Calm,Calm,-,N/A,,Clear,0,2011-11-09 07:56:00
11:16 PM,1.4,-0.4,92,30.06,10.0,ENE,3.5,-,N/A,,Clear,70,2011-11-09 08:16:00
11:36 PM,1.4,1.4,100,30.05,10.0,East,5.8,-,N/A,,Clear,90,2011-11-09 08:36:00
11:56 PM,3.2,1.4,92,30.03,10.0,East,4.6,-,N/A,,Clear,90,2011-11-09 08:56:00